Time,TemperatureF,DewpointF,PressureIn,WindDirection,WindDirectionDegrees,WindSpeedMPH,WindSpeedGustMPH,Humidity,HourlyPrecipIn,Conditions,Clouds,dailyrainin,SoftwareType,DateUTC
2013-02-03 00:00:00,70.2,60.8,30.15,NE,55,0.0,6.0,72,0.00,,---,0.00,VWS V14.00,2013-02-03 10:00:00,
2013-02-03 00:05:00,70.2,60.8,30.15,NE,55,0.0,4.0,72,0.00,,---,0.00,VWS V14.00,2013-02-03 10:05:00,
2013-02-03 00:10:00,70.2,60.8,30.15,ENE,58,0.0,5.0,72,0.00,,---,0.00,VWS V14.00,2013-02-03 10:10:00,
2013-02-03 00:15:00,70.2,60.8,30.15,ENE,58,3.0,5.0,72,0.00,,---,0.00,VWS V14.00,2013-02-03 10:15:00,
2013-02-03 00:20:00,70.3,60.5,30.15,ENE,60,0.0,7.0,71,0.00,,---,0.00,VWS V14.00,2013-02-03 10:20:00,
2013-02-03 00:25:00,70.3,60.5,30.15,ENE,60,4.0,7.0,71,0.00,,---,0.00,VWS V14.00,2013-02-03 10:25:00,
2013-02-03 00:30:00,70.2,60.8,30.15,ENE,60,1.0,7.0,72,0.00,,---,0.00,VWS V14.00,2013-02-03 10:30:00,
2013-02-03 00:35:00,70.1,60.7,30.15,ENE,60,0.0,0.0,72,0.00,,---,0.00,VWS V14.00,2013-02-03 10:35:00,
2013-02-03 00:40:00,70.0,60.6,30.15,ENE,60,0.0,0.0,72,0.00,,---,0.00,VWS V14.00,2013-02-03 10:40:00,
2013-02-03 00:45:00,69.9,61.2,30.15,NE,53,2.0,6.0,74,0.00,,---,0.00,VWS V14.00,2013-02-03 10:45:00,
2013-02-03 00:50:00,69.9,60.9,30.15,NE,54,1.0,6.0,73,0.00,,---,0.00,VWS V14.00,2013-02-03 10:50:00,
2013-02-03 00:55:00,69.9,60.9,30.15,NE,54,0.0,6.0,73,0.00,,---,0.00,VWS V14.00,2013-02-03 10:55:00,
2013-02-03 01:00:00,69.9,60.9,30.15,NE,54,3.0,6.0,73,0.00,,---,0.00,VWS V14.00,2013-02-03 11:00:00,
2013-02-03 01:05:00,69.9,60.9,30.14,NE,53,0.0,4.0,73,0.00,,---,0.00,VWS V14.00,2013-02-03 11:05:00,
2013-02-03 01:10:00,69.9,60.9,30.14,NE,53,0.0,4.0,73,0.00,,---,0.00,VWS V14.00,2013-02-03 11:10:00,
2013-02-03 01:15:00,69.8,60.8,30.14,NE,54,3.0,4.0,73,0.00,,---,0.00,VWS V14.00,2013-02-03 11:15:00,
2013-02-03 01:20:00,69.7,60.7,30.14,NE,54,0.0,4.0,73,0.00,,---,0.00,VWS V14.00,2013-02-03 11:20:00,
2013-02-03 01:25:00,69.5,60.5,30.14,NE,54,3.0,5.0,73,0.00,,---,0.00,VWS V14.00,2013-02-03 11:25:00,
2013-02-03 01:30:00,69.4,60.8,30.14,NE,54,0.0,5.0,74,0.00,,---,0.00,VWS V14.00,2013-02-03 11:30:00,
2013-02-03 01:35:00,69.3,60.7,30.14,ENE,57,0.0,0.0,74,0.00,,---,0.00,VWS V14.00,2013-02-03 11:35:00,
2013-02-03 01:40:00,69.1,60.5,30.14,ENE,57,2.0,2.0,74,0.00,,---,0.00,VWS V14.00,2013-02-03 11:40:00,
2013-02-03 01:45:00,68.9,60.3,30.14,ENE,57,0.0,2.0,74,0.00,,---,0.00,VWS V14.00,2013-02-03 11:45:00,
2013-02-03 01:50:00,68.8,60.6,30.14,ENE,57,0.0,3.0,75,0.00,,---,0.00,VWS V14.00,2013-02-03 11:50:00,
2013-02-03 01:55:00,68.7,60.5,30.13,ENE,57,2.0,4.0,75,0.00,,---,0.00,VWS V14.00,2013-02-03 11:55:00,
2013-02-03 02:00:00,68.8,60.6,30.13,ENE,57,0.0,4.0,75,0.00,,---,0.00,VWS V14.00,2013-02-03 12:00:00,
2013-02-03 02:05:00,68.8,60.6,30.13,ENE,57,0.0,1.0,75,0.00,,---,0.00,VWS V14.00,2013-02-03 12:05:00,
2013-02-03 02:10:00,68.7,60.5,30.13,ENE,57,0.0,4.0,75,0.00,,---,0.00,VWS V14.00,2013-02-03 12:10:00,
2013-02-03 02:15:00,68.6,60.4,30.13,ENE,57,0.0,4.0,75,0.00,,---,0.00,VWS V14.00,2013-02-03 12:15:00,
2013-02-03 02:20:00,68.4,60.2,30.13,ENE,57,0.0,4.0,75,0.00,,---,0.00,VWS V14.00,2013-02-03 12:20:00,
2013-02-03 02:25:00,68.3,60.5,30.13,ENE,57,0.0,4.0,76,0.00,,---,0.00,VWS V14.00,2013-02-03 12:25:00,
2013-02-03 02:30:00,68.2,60.3,30.12,ENE,65,1.0,5.0,76,0.00,,---,0.00,VWS V14.00,2013-02-03 12:30:00,
2013-02-03 02:35:00,68.3,60.8,30.12,ENE,65,0.0,3.0,77,0.00,,---,0.00,VWS V14.00,2013-02-03 12:35:00,
2013-02-03 02:40:00,68.4,60.5,30.12,ENE,65,1.0,3.0,76,0.00,,---,0.00,VWS V14.00,2013-02-03 12:40:00,
2013-02-03 02:45:00,68.4,60.5,30.12,ENE,65,0.0,3.0,76,0.00,,---,0.00,VWS V14.00,2013-02-03 12:45:00,
2013-02-03 02:50:00,68.4,60.5,30.12,ENE,65,0.0,4.0,76,0.00,,---,0.00,VWS V14.00,2013-02-03 12:50:00,
2013-02-03 02:55:00,68.5,60.6,30.12,ENE,65,0.0,4.0,76,0.00,,---,0.00,VWS V14.00,2013-02-03 12:55:00,
2013-02-03 03:00:00,68.5,60.6,30.12,ENE,65,0.0,4.0,76,0.00,,---,0.00,VWS V14.00,2013-02-03 13:00:00,
2013-02-03 03:05:00,68.3,60.5,30.12,ENE,65,0.0,1.0,76,0.00,,---,0.00,VWS V14.00,2013-02-03 13:05:00,
2013-02-03 03:10:00,68.3,60.5,30.12,ENE,65,0.0,2.0,76,0.00,,---,0.00,VWS V14.00,2013-02-03 13:10:00,
2013-02-03 03:15:00,68.3,60.8,30.12,ENE,64,0.0,5.0,77,0.00,,---,0.00,VWS V14.00,2013-02-03 13:15:00,
2013-02-03 03:20:00,68.3,60.8,30.12,ENE,64,0.0,5.0,77,0.00,,---,0.00,VWS V14.00,2013-02-03 13:20:00,
2013-02-03 03:25:00,68.4,60.9,30.12,ENE,64,2.0,5.0,77,0.00,,---,0.00,VWS V14.00,2013-02-03 13:25:00,
2013-02-03 03:30:00,68.4,60.9,30.12,ENE,64,0.0,5.0,77,0.00,,---,0.00,VWS V14.00,2013-02-03 13:30:00,
2013-02-03 03:35:00,68.4,60.5,30.12,ENE,64,0.0,1.0,76,0.00,,---,0.00,VWS V14.00,2013-02-03 13:35:00,
2013-02-03 03:40:00,68.3,60.5,30.12,ENE,64,0.0,1.0,76,0.00,,---,0.00,VWS V14.00,2013-02-03 13:40:00,
2013-02-03 03:45:00,68.3,60.5,30.12,ENE,64,0.0,2.0,76,0.00,,---,0.00,VWS V14.00,2013-02-03 13:45:00,
2013-02-03 03:50:00,68.3,60.5,30.12,ENE,64,0.0,2.0,76,0.00,,---,0.00,VWS V14.00,2013-02-03 13:50:00,
2013-02-03 03:55:00,68.2,60.3,30.12,ENE,64,0.0,2.0,76,0.00,,---,0.00,VWS V14.00,2013-02-03 13:55:00,
2013-02-03 04:00:00,68.1,60.3,30.12,NE,51,0.0,7.0,76,0.00,,---,0.00,VWS V14.00,2013-02-03 14:00:00,
2013-02-03 04:05:00,68.2,60.7,30.12,NE,51,0.0,3.0,77,0.00,,---,0.00,VWS V14.00,2013-02-03 14:05:00,
2013-02-03 04:10:00,68.3,60.5,30.12,NE,52,0.0,3.0,76,0.00,,---,0.00,VWS V14.00,2013-02-03 14:10:00,
2013-02-03 04:15:00,68.2,60.3,30.12,NE,52,0.0,3.0,76,0.00,,---,0.00,VWS V14.00,2013-02-03 14:15:00,
2013-02-03 04:20:00,68.2,60.3,30.13,NE,52,0.0,4.0,76,0.00,,---,0.00,VWS V14.00,2013-02-03 14:20:00,
2013-02-03 04:25:00,68.2,60.3,30.13,NE,52,1.0,4.0,76,0.00,,---,0.00,VWS V14.00,2013-02-03 14:25:00,
2013-02-03 04:30:00,68.2,60.3,30.13,NE,52,0.0,4.0,76,0.00,,---,0.00,VWS V14.00,2013-02-03 14:30:00,
2013-02-03 04:35:00,68.3,60.5,30.13,NE,52,0.0,4.0,76,0.00,,---,0.00,VWS V14.00,2013-02-03 14:35:00,
2013-02-03 04:40:00,68.2,60.3,30.13,NE,52,3.0,4.0,76,0.00,,---,0.00,VWS V14.00,2013-02-03 14:40:00,
2013-02-03 04:45:00,68.2,60.3,30.13,NE,52,0.0,4.0,76,0.00,,---,0.00,VWS V14.00,2013-02-03 14:45:00,
2013-02-03 04:50:00,68.2,60.3,30.13,NE,52,3.0,4.0,76,0.00,,---,0.00,VWS V14.00,2013-02-03 14:50:00,
2013-02-03 04:55:00,68.2,60.3,30.13,NE,52,0.0,4.0,76,0.00,,---,0.00,VWS V14.00,2013-02-03 14:55:00,
2013-02-03 05:00:00,68.3,60.5,30.14,NE,52,1.0,4.0,76,0.00,,---,0.00,VWS V14.00,2013-02-03 15:00:00,
2013-02-03 05:05:00,68.4,60.5,30.14,NE,51,0.0,2.0,76,0.00,,---,0.00,VWS V14.00,2013-02-03 15:05:00,
2013-02-03 05:10:00,68.5,60.3,30.14,NE,51,3.0,5.0,75,0.00,,---,0.00,VWS V14.00,2013-02-03 15:10:00,
2013-02-03 05:15:00,68.6,60.4,30.14,NE,51,0.0,5.0,75,0.00,,---,0.00,VWS V14.00,2013-02-03 15:15:00,
2013-02-03 05:20:00,68.6,60.0,30.14,NE,51,0.0,5.0,74,0.00,,---,0.00,VWS V14.00,2013-02-03 15:20:00,
2013-02-03 05:25:00,68.6,60.0,30.14,NE,51,2.0,5.0,74,0.00,,---,0.00,VWS V14.00,2013-02-03 15:25:00,
2013-02-03 05:30:00,68.6,60.0,30.14,NE,51,1.0,5.0,74,0.00,,---,0.00,VWS V14.00,2013-02-03 15:30:00,
2013-02-03 05:35:00,68.7,60.1,30.14,NE,51,2.0,4.0,74,0.00,,---,0.00,VWS V14.00,2013-02-03 15:35:00,
2013-02-03 05:40:00,68.8,60.2,30.14,NE,51,0.0,4.0,74,0.00,,---,0.00,VWS V14.00,2013-02-03 15:40:00,
2013-02-03 05:45:00,68.8,60.2,30.14,NE,52,2.0,4.0,74,0.00,,---,0.00,VWS V14.00,2013-02-03 15:45:00,
2013-02-03 05:50:00,68.8,60.2,30.14,NE,52,0.0,4.0,74,0.00,,---,0.00,VWS V14.00,2013-02-03 15:50:00,
2013-02-03 05:55:00,68.8,60.2,30.14,NE,52,0.0,4.0,74,0.00,,---,0.00,VWS V14.00,2013-02-03 15:55:00,
2013-02-03 06:00:00,68.6,60.0,30.14,NE,52,0.0,4.0,74,0.00,,---,0.00,VWS V14.00,2013-02-03 16:00:00,
2013-02-03 06:05:00,68.5,59.9,30.15,NE,52,3.0,3.0,74,0.00,,---,0.00,VWS V14.00,2013-02-03 16:05:00,
2013-02-03 06:10:00,68.4,59.8,30.15,NE,51,1.0,5.0,74,0.00,,---,0.00,VWS V14.00,2013-02-03 16:10:00,
2013-02-03 06:15:00,68.5,59.9,30.15,NE,52,2.0,5.0,74,0.00,,---,0.00,VWS V14.00,2013-02-03 16:15:00,
2013-02-03 06:20:00,68.6,60.0,30.16,NE,53,4.0,6.0,74,0.00,,---,0.00,VWS V14.00,2013-02-03 16:20:00,
2013-02-03 06:25:00,68.6,60.0,30.16,NE,55,5.0,6.0,74,0.00,,---,0.00,VWS V14.00,2013-02-03 16:25:00,
2013-02-03 06:30:00,68.6,59.6,30.16,NE,55,0.0,6.0,73,0.00,,---,0.00,VWS V14.00,2013-02-03 16:30:00,
2013-02-03 06:35:00,68.7,59.7,30.16,NE,55,0.0,4.0,73,0.00,,---,0.00,VWS V14.00,2013-02-03 16:35:00,
2013-02-03 06:40:00,68.7,59.7,30.16,NE,55,0.0,4.0,73,0.00,,---,0.00,VWS V14.00,2013-02-03 16:40:00,
2013-02-03 06:45:00,68.7,59.7,30.16,NE,55,4.0,5.0,73,0.00,,---,0.00,VWS V14.00,2013-02-03 16:45:00,
2013-02-03 06:50:00,68.7,59.7,30.17,NE,55,0.0,6.0,73,0.00,,---,0.00,VWS V14.00,2013-02-03 16:50:00,
2013-02-03 06:55:00,68.6,59.2,30.17,NE,55,0.0,6.0,72,0.00,,---,0.00,VWS V14.00,2013-02-03 16:55:00,
2013-02-03 07:00:00,68.6,59.6,30.17,NE,55,1.0,6.0,73,0.00,,---,0.00,VWS V14.00,2013-02-03 17:00:00,
2013-02-03 07:05:00,68.7,59.7,30.17,NE,55,0.0,1.0,73,0.00,,---,0.00,VWS V14.00,2013-02-03 17:05:00,
2013-02-03 07:10:00,68.7,59.7,30.17,NE,55,0.0,1.0,73,0.00,,---,0.00,VWS V14.00,2013-02-03 17:10:00,
2013-02-03 07:15:00,68.8,59.8,30.17,NE,55,0.0,10.0,73,0.00,,---,0.00,VWS V14.00,2013-02-03 17:15:00,
2013-02-03 07:20:00,68.8,59.8,30.17,NE,55,0.0,10.0,73,0.00,,---,0.00,VWS V14.00,2013-02-03 17:20:00,
2013-02-03 07:25:00,68.8,59.8,30.18,NE,55,2.0,10.0,73,0.00,,---,0.00,VWS V14.00,2013-02-03 17:25:00,
2013-02-03 07:30:00,68.8,59.4,30.18,NE,55,0.0,10.0,72,0.00,,---,0.00,VWS V14.00,2013-02-03 17:30:00,
2013-02-03 07:35:00,68.8,59.4,30.18,NE,55,2.0,2.0,72,0.00,,---,0.00,VWS V14.00,2013-02-03 17:35:00,
2013-02-03 07:40:00,68.9,59.1,30.18,NE,55,0.0,4.0,71,0.00,,---,0.00,VWS V14.00,2013-02-03 17:40:00,
2013-02-03 07:45:00,68.9,59.5,30.18,NE,55,0.0,5.0,72,0.00,,---,0.00,VWS V14.00,2013-02-03 17:45:00,
2013-02-03 07:50:00,69.1,59.7,30.18,NE,54,1.0,5.0,72,0.00,,---,0.00,VWS V14.00,2013-02-03 17:50:00,
2013-02-03 07:55:00,69.2,59.4,30.19,NE,54,0.0,5.0,71,0.00,,---,0.00,VWS V14.00,2013-02-03 17:55:00,
2013-02-03 08:00:00,69.4,59.6,30.18,NE,51,0.0,6.0,71,0.00,,---,0.00,VWS V14.00,2013-02-03 18:00:00,
2013-02-03 08:05:00,69.5,60.1,30.19,NE,51,0.0,2.0,72,0.00,,---,0.00,VWS V14.00,2013-02-03 18:05:00,
2013-02-03 08:10:00,69.5,59.7,30.19,NE,42,0.0,7.0,71,0.00,,---,0.00,VWS V14.00,2013-02-03 18:10:00,
2013-02-03 08:15:00,69.6,59.8,30.19,ENE,66,0.0,7.0,71,0.00,,---,0.00,VWS V14.00,2013-02-03 18:15:00,
2013-02-03 08:20:00,69.7,59.9,30.19,ENE,66,0.0,7.0,71,0.00,,---,0.00,VWS V14.00,2013-02-03 18:20:00,
2013-02-03 08:25:00,69.8,60.4,30.19,ENE,66,1.0,7.0,72,0.00,,---,0.00,VWS V14.00,2013-02-03 18:25:00,
2013-02-03 08:30:00,69.8,60.4,30.19,ENE,65,2.0,7.0,72,0.00,,---,0.00,VWS V14.00,2013-02-03 18:30:00,
2013-02-03 08:35:00,69.9,60.1,30.19,ENE,65,0.0,2.0,71,0.00,,---,0.00,VWS V14.00,2013-02-03 18:35:00,
2013-02-03 08:40:00,70.0,60.2,30.19,NE,36,6.0,9.0,71,0.00,,---,0.00,VWS V14.00,2013-02-03 18:40:00,
2013-02-03 08:45:00,70.1,59.9,30.19,NE,48,4.0,9.0,70,0.00,,---,0.00,VWS V14.00,2013-02-03 18:45:00,
2013-02-03 08:50:00,70.2,59.6,30.19,ENE,61,0.0,9.0,69,0.00,,---,0.00,VWS V14.00,2013-02-03 18:50:00,
2013-02-03 08:55:00,70.3,60.1,30.19,ENE,61,1.0,9.0,70,0.00,,---,0.00,VWS V14.00,2013-02-03 18:55:00,
2013-02-03 09:00:00,70.3,59.7,30.20,ENE,61,0.0,9.0,69,0.00,,---,0.00,VWS V14.00,2013-02-03 19:00:00,
2013-02-03 09:05:00,70.5,60.7,30.19,ENE,60,0.0,2.0,71,0.00,,---,0.00,VWS V14.00,2013-02-03 19:05:00,
2013-02-03 09:10:00,70.5,60.7,30.19,ENE,60,1.0,5.0,71,0.00,,---,0.00,VWS V14.00,2013-02-03 19:10:00,
2013-02-03 09:15:00,70.6,60.8,30.19,ENE,60,2.0,5.0,71,0.00,,---,0.00,VWS V14.00,2013-02-03 19:15:00,
2013-02-03 09:20:00,70.7,60.8,30.20,NE,52,4.0,11.0,71,0.00,,---,0.00,VWS V14.00,2013-02-03 19:20:00,
2013-02-03 09:25:00,70.7,60.8,30.20,NE,52,3.0,11.0,71,0.00,,---,0.00,VWS V14.00,2013-02-03 19:25:00,
2013-02-03 09:30:00,70.8,60.9,30.19,NE,51,2.0,11.0,71,0.00,,---,0.00,VWS V14.00,2013-02-03 19:30:00,
2013-02-03 09:35:00,71.3,61.0,30.19,NE,49,4.0,6.0,70,0.00,,---,0.00,VWS V14.00,2013-02-03 19:35:00,
2013-02-03 09:40:00,71.6,60.9,30.20,NNE,15,4.0,8.0,69,0.00,,---,0.00,VWS V14.00,2013-02-03 19:40:00,
2013-02-03 09:45:00,72.2,60.7,30.20,NNE,13,0.0,8.0,67,0.00,,---,0.00,VWS V14.00,2013-02-03 19:45:00,
2013-02-03 09:50:00,72.4,60.4,30.20,NNE,26,0.0,8.0,66,0.00,,---,0.00,VWS V14.00,2013-02-03 19:50:00,
2013-02-03 09:55:00,72.6,60.6,30.20,NNE,26,2.0,8.0,66,0.00,,---,0.00,VWS V14.00,2013-02-03 19:55:00,
2013-02-03 10:00:00,72.5,60.5,30.20,NNE,22,2.0,8.0,66,0.00,,---,0.00,VWS V14.00,2013-02-03 20:00:00,
2013-02-03 10:05:00,72.3,60.7,30.21,NNE,31,2.0,5.0,67,0.00,,---,0.00,VWS V14.00,2013-02-03 20:05:00,
2013-02-03 10:10:00,72.2,61.5,30.20,NNE,33,0.0,5.0,69,0.00,,---,0.00,VWS V14.00,2013-02-03 20:10:00,
2013-02-03 10:15:00,72.4,61.2,30.20,NE,34,2.0,5.0,68,0.00,,---,0.00,VWS V14.00,2013-02-03 20:15:00,
2013-02-03 10:20:00,72.4,61.2,30.20,NNE,29,0.0,5.0,68,0.00,,---,0.00,VWS V14.00,2013-02-03 20:20:00,
2013-02-03 10:25:00,72.4,61.2,30.20,NNE,26,4.0,7.0,68,0.00,,---,0.00,VWS V14.00,2013-02-03 20:25:00,
2013-02-03 10:30:00,72.4,61.2,30.20,NNE,24,1.0,7.0,68,0.00,,---,0.00,VWS V14.00,2013-02-03 20:30:00,
2013-02-03 10:35:00,72.5,61.8,30.20,ENE,58,8.0,12.0,69,0.00,,---,0.00,VWS V14.00,2013-02-03 20:35:00,
2013-02-03 10:40:00,72.4,60.8,30.20,ENE,68,5.0,12.0,67,0.00,,---,0.00,VWS V14.00,2013-02-03 20:40:00,
2013-02-03 10:45:00,72.3,60.3,30.20,ENE,73,4.0,12.0,66,0.00,,---,0.00,VWS V14.00,2013-02-03 20:45:00,
2013-02-03 10:50:00,72.5,60.5,30.20,ENE,70,1.0,12.0,66,0.00,,---,0.00,VWS V14.00,2013-02-03 20:50:00,
2013-02-03 10:55:00,72.9,60.5,30.20,NE,54,3.0,12.0,65,0.00,,---,0.00,VWS V14.00,2013-02-03 20:55:00,
2013-02-03 11:00:00,73.0,61.4,30.19,NE,54,0.0,12.0,67,0.00,,---,0.00,VWS V14.00,2013-02-03 21:00:00,
2013-02-03 11:05:00,73.4,60.9,30.19,NE,54,4.0,5.0,65,0.00,,---,0.00,VWS V14.00,2013-02-03 21:05:00,
2013-02-03 11:09:00,73.5,61.0,30.18,NE,49,2.0,5.0,65,0.00,,---,0.00,VWS V14.00,2013-02-03 21:09:00,
2013-02-03 11:14:00,73.9,61.4,30.18,NE,49,3.0,5.0,65,0.00,,---,0.00,VWS V14.00,2013-02-03 21:14:00,
2013-02-03 11:19:00,74.1,61.2,30.18,NE,55,2.0,6.0,64,0.00,,---,0.00,VWS V14.00,2013-02-03 21:19:00,
2013-02-03 11:24:00,74.7,61.7,30.18,NNE,17,0.0,8.0,64,0.00,,---,0.00,VWS V14.00,2013-02-03 21:24:00,
2013-02-03 11:29:00,74.8,61.4,30.18,North,355,1.0,8.0,63,0.00,,---,0.00,VWS V14.00,2013-02-03 21:29:00,
2013-02-03 11:34:00,74.5,61.1,30.17,NNW,346,0.0,10.0,63,0.00,,---,0.00,VWS V14.00,2013-02-03 21:34:00,
2013-02-03 11:39:00,74.3,61.3,30.17,NNE,32,1.0,11.0,64,0.00,,---,0.00,VWS V14.00,2013-02-03 21:39:00,
2013-02-03 11:44:00,74.9,61.5,30.17,North,355,0.0,11.0,63,0.00,,---,0.00,VWS V14.00,2013-02-03 21:44:00,
2013-02-03 11:49:00,75.3,61.8,30.17,NNE,21,0.0,11.0,63,0.00,,---,0.00,VWS V14.00,2013-02-03 21:49:00,
2013-02-03 11:54:00,74.9,61.9,30.16,NE,51,1.0,11.0,64,0.00,,---,0.00,VWS V14.00,2013-02-03 21:54:00,
2013-02-03 11:59:00,74.8,61.4,30.16,NNE,27,6.0,11.0,63,0.00,,---,0.00,VWS V14.00,2013-02-03 21:59:00,
2013-02-03 12:04:00,74.6,61.6,30.16,NE,52,4.0,9.0,64,0.00,,---,0.00,VWS V14.00,2013-02-03 22:04:00,
2013-02-03 12:09:00,74.9,61.9,30.16,NE,42,1.0,9.0,64,0.00,,---,0.00,VWS V14.00,2013-02-03 22:09:00,
2013-02-03 12:14:00,75.5,61.6,30.16,ENE,64,0.0,9.0,62,0.00,,---,0.00,VWS V14.00,2013-02-03 22:14:00,
2013-02-03 12:19:00,75.7,61.8,30.15,ENE,70,0.0,9.0,62,0.00,,---,0.00,VWS V14.00,2013-02-03 22:19:00,
2013-02-03 12:24:00,75.6,61.2,30.15,SSE,150,7.0,10.0,61,0.00,,---,0.00,VWS V14.00,2013-02-03 22:24:00,
2013-02-03 12:29:00,75.6,61.2,30.15,ENE,67,1.0,10.0,61,0.00,,---,0.00,VWS V14.00,2013-02-03 22:29:00,
2013-02-03 12:34:00,75.2,61.3,30.14,NNE,33,3.0,12.0,62,0.00,,---,0.00,VWS V14.00,2013-02-03 22:34:00,
2013-02-03 12:39:00,75.3,61.8,30.14,NNE,16,4.0,12.0,63,0.00,,---,0.00,VWS V14.00,2013-02-03 22:39:00,
2013-02-03 12:44:00,75.4,61.5,30.14,ENE,65,0.0,12.0,62,0.00,,---,0.00,VWS V14.00,2013-02-03 22:44:00,
2013-02-03 12:49:00,75.3,61.8,30.14,North,11,4.0,12.0,63,0.00,,---,0.00,VWS V14.00,2013-02-03 22:49:00,
2013-02-03 12:54:00,75.1,61.7,30.13,North,5,2.0,12.0,63,0.00,,---,0.00,VWS V14.00,2013-02-03 22:54:00,
2013-02-03 12:59:00,75.3,61.4,30.13,NE,38,2.0,12.0,62,0.00,,---,0.00,VWS V14.00,2013-02-03 22:59:00,
2013-02-03 13:04:00,75.5,61.6,30.13,NNE,20,4.0,8.0,62,0.00,,---,0.00,VWS V14.00,2013-02-03 23:04:00,
2013-02-03 13:09:00,75.3,61.8,30.13,NE,39,2.0,9.0,63,0.00,,---,0.00,VWS V14.00,2013-02-03 23:09:00,
2013-02-03 13:14:00,75.1,61.7,30.12,NE,46,3.0,9.0,63,0.00,,---,0.00,VWS V14.00,2013-02-03 23:14:00,
2013-02-03 13:19:00,74.7,62.2,30.12,NE,44,4.0,9.0,65,0.00,,---,0.00,VWS V14.00,2013-02-03 23:19:00,
2013-02-03 13:24:00,74.4,61.4,30.12,NNE,32,4.0,9.0,64,0.00,,---,0.00,VWS V14.00,2013-02-03 23:24:00,
2013-02-03 13:29:00,74.1,61.6,30.12,North,5,5.0,11.0,65,0.00,,---,0.00,VWS V14.00,2013-02-03 23:29:00,
2013-02-03 13:34:00,73.9,61.4,30.12,ENE,59,5.0,6.0,65,0.00,,---,0.00,VWS V14.00,2013-02-03 23:34:00,
2013-02-03 13:39:00,73.5,60.6,30.12,NNE,30,3.0,9.0,64,0.00,,---,0.00,VWS V14.00,2013-02-03 23:39:00,
2013-02-03 13:44:00,73.8,60.9,30.12,ENE,57,4.0,9.0,64,0.00,,---,0.00,VWS V14.00,2013-02-03 23:44:00,
2013-02-03 13:49:00,73.9,61.0,30.12,NE,48,1.0,9.0,64,0.00,,---,0.00,VWS V14.00,2013-02-03 23:49:00,
2013-02-03 13:54:00,73.7,60.8,30.12,NE,49,1.0,10.0,64,0.00,,---,0.00,VWS V14.00,2013-02-03 23:54:00,
2013-02-03 13:59:00,74.0,60.6,30.11,NE,46,3.0,10.0,63,0.00,,---,0.00,VWS V14.00,2013-02-03 23:59:00,
2013-02-03 14:04:00,74.0,61.5,30.11,ENE,58,4.0,7.0,65,0.00,,---,0.00,VWS V14.00,2013-02-04 00:04:00,
2013-02-03 14:09:00,74.2,62.1,30.11,ENE,58,2.0,7.0,66,0.00,,---,0.00,VWS V14.00,2013-02-04 00:09:00,
2013-02-03 14:14:00,74.5,62.0,30.11,NE,50,3.0,8.0,65,0.00,,---,0.00,VWS V14.00,2013-02-04 00:14:00,
2013-02-03 14:19:00,74.2,61.2,30.11,ENE,64,0.0,11.0,64,0.00,,---,0.00,VWS V14.00,2013-02-04 00:19:00,
2013-02-03 14:24:00,74.4,61.4,30.11,NE,46,4.0,11.0,64,0.00,,---,0.00,VWS V14.00,2013-02-04 00:24:00,
2013-02-03 14:29:00,74.3,60.9,30.11,NE,35,4.0,11.0,63,0.00,,---,0.00,VWS V14.00,2013-02-04 00:29:00,
2013-02-03 14:34:00,74.4,61.4,30.11,NW,321,10.0,10.0,64,0.00,,---,0.00,VWS V14.00,2013-02-04 00:34:00,
2013-02-03 14:39:00,74.7,61.3,30.10,NNE,12,4.0,10.0,63,0.00,,---,0.00,VWS V14.00,2013-02-04 00:39:00,
2013-02-03 14:44:00,74.9,61.9,30.10,NNE,31,4.0,10.0,64,0.00,,---,0.00,VWS V14.00,2013-02-04 00:44:00,
2013-02-03 14:49:00,75.2,61.8,30.10,ENE,65,2.0,10.0,63,0.00,,---,0.00,VWS V14.00,2013-02-04 00:49:00,
2013-02-03 14:54:00,75.1,61.7,30.10,ENE,63,2.0,10.0,63,0.00,,---,0.00,VWS V14.00,2013-02-04 00:54:00,
2013-02-03 14:59:00,74.7,61.7,30.11,ENE,74,2.0,10.0,64,0.00,,---,0.00,VWS V14.00,2013-02-04 00:59:00,
2013-02-03 15:04:00,74.3,60.9,30.10,ENE,64,3.0,7.0,63,0.00,,---,0.00,VWS V14.00,2013-02-04 01:04:00,
2013-02-03 15:09:00,74.1,60.7,30.10,NE,54,3.0,10.0,63,0.00,,---,0.00,VWS V14.00,2013-02-04 01:09:00,
2013-02-03 15:14:00,74.1,61.2,30.11,North,11,1.0,10.0,64,0.00,,---,0.00,VWS V14.00,2013-02-04 01:14:00,
2013-02-03 15:19:00,74.1,61.6,30.11,NE,54,5.0,11.0,65,0.00,,---,0.00,VWS V14.00,2013-02-04 01:19:00,
2013-02-03 15:24:00,74.1,61.2,30.11,ENE,57,1.0,11.0,64,0.00,,---,0.00,VWS V14.00,2013-02-04 01:24:00,
2013-02-03 15:29:00,74.2,61.2,30.11,NNE,30,2.0,11.0,64,0.00,,---,0.00,VWS V14.00,2013-02-04 01:29:00,
2013-02-03 15:34:00,74.1,60.7,30.11,ENE,59,4.0,8.0,63,0.00,,---,0.00,VWS V14.00,2013-02-04 01:34:00,
2013-02-03 15:39:00,74.4,61.0,30.11,North,5,1.0,8.0,63,0.00,,---,0.00,VWS V14.00,2013-02-04 01:39:00,
2013-02-03 15:44:00,74.4,61.0,30.12,NE,55,2.0,10.0,63,0.00,,---,0.00,VWS V14.00,2013-02-04 01:44:00,
2013-02-03 15:49:00,74.1,60.7,30.12,NE,40,3.0,11.0,63,0.00,,---,0.00,VWS V14.00,2013-02-04 01:49:00,
2013-02-03 15:54:00,73.7,60.8,30.11,ENE,59,1.0,11.0,64,0.00,,---,0.00,VWS V14.00,2013-02-04 01:54:00,
2013-02-03 15:59:00,74.1,61.6,30.12,NE,38,5.0,11.0,65,0.00,,---,0.00,VWS V14.00,2013-02-04 01:59:00,
2013-02-03 16:04:00,74.0,60.6,30.12,NE,43,5.0,7.0,63,0.00,,---,0.00,VWS V14.00,2013-02-04 02:04:00,
2013-02-03 16:09:00,73.8,61.3,30.12,ENE,66,5.0,10.0,65,0.00,,---,0.00,VWS V14.00,2013-02-04 02:09:00,
2013-02-03 16:14:00,73.7,61.2,30.12,ENE,71,1.0,12.0,65,0.00,,---,0.00,VWS V14.00,2013-02-04 02:14:00,
2013-02-03 16:19:00,73.6,60.7,30.12,ENE,75,2.0,12.0,64,0.00,,---,0.00,VWS V14.00,2013-02-04 02:19:00,
2013-02-03 16:24:00,73.6,60.7,30.12,NNE,29,6.0,12.0,64,0.00,,---,0.00,VWS V14.00,2013-02-04 02:24:00,
2013-02-03 16:29:00,73.5,60.6,30.12,NNE,20,3.0,12.0,64,0.00,,---,0.00,VWS V14.00,2013-02-04 02:29:00,
2013-02-03 16:34:00,73.4,60.9,30.12,NE,52,5.0,11.0,65,0.00,,---,0.00,VWS V14.00,2013-02-04 02:34:00,
2013-02-03 16:39:00,73.1,60.7,30.12,NNE,28,2.0,11.0,65,0.00,,---,0.00,VWS V14.00,2013-02-04 02:39:00,
2013-02-03 16:44:00,73.2,60.7,30.12,ENE,71,4.0,11.0,65,0.00,,---,0.00,VWS V14.00,2013-02-04 02:44:00,
2013-02-03 16:49:00,73.1,60.7,30.12,ENE,61,7.0,11.0,65,0.00,,---,0.00,VWS V14.00,2013-02-04 02:49:00,
2013-02-03 16:54:00,72.7,60.3,30.12,NE,46,5.0,14.0,65,0.00,,---,0.00,VWS V14.00,2013-02-04 02:54:00,
2013-02-03 16:59:00,73.0,60.5,30.12,NNE,32,1.0,14.0,65,0.00,,---,0.00,VWS V14.00,2013-02-04 02:59:00,
2013-02-03 17:04:00,73.0,60.5,30.12,NE,56,0.0,11.0,65,0.00,,---,0.00,VWS V14.00,2013-02-04 03:04:00,
2013-02-03 17:09:00,72.9,60.5,30.12,NE,51,6.0,11.0,65,0.00,,---,0.00,VWS V14.00,2013-02-04 03:09:00,
2013-02-03 17:14:00,72.9,60.5,30.13,NE,37,5.0,13.0,65,0.00,,---,0.00,VWS V14.00,2013-02-04 03:14:00,
2013-02-03 17:19:00,72.6,60.6,30.12,NE,51,2.0,13.0,66,0.00,,---,0.00,VWS V14.00,2013-02-04 03:19:00,
2013-02-03 17:24:00,72.3,60.3,30.13,NE,55,3.0,13.0,66,0.00,,---,0.00,VWS V14.00,2013-02-04 03:24:00,
2013-02-03 17:29:00,72.1,60.5,30.12,NE,53,2.0,13.0,67,0.00,,---,0.00,VWS V14.00,2013-02-04 03:29:00,
2013-02-03 17:34:00,72.1,60.5,30.13,North,5,7.0,7.0,67,0.00,,---,0.00,VWS V14.00,2013-02-04 03:34:00,
2013-02-03 17:39:00,71.8,60.3,30.13,ENE,73,2.0,9.0,67,0.00,,---,0.00,VWS V14.00,2013-02-04 03:39:00,
2013-02-03 17:44:00,71.7,60.6,30.13,ENE,69,1.0,9.0,68,0.00,,---,0.00,VWS V14.00,2013-02-04 03:44:00,
2013-02-03 17:49:00,71.8,61.1,30.13,North,5,4.0,9.0,69,0.00,,---,0.00,VWS V14.00,2013-02-04 03:49:00,
2013-02-03 17:54:00,71.8,60.3,30.14,ENE,61,4.0,9.0,67,0.00,,---,0.00,VWS V14.00,2013-02-04 03:54:00,
2013-02-03 17:59:00,71.8,61.1,30.14,NE,50,3.0,10.0,69,0.00,,---,0.00,VWS V14.00,2013-02-04 03:59:00,
2013-02-03 18:04:00,71.7,60.6,30.14,NNE,32,0.0,11.0,68,0.00,,---,0.00,VWS V14.00,2013-02-04 04:04:00,
2013-02-03 18:09:00,71.6,60.5,30.14,ENE,57,3.0,11.0,68,0.00,,---,0.00,VWS V14.00,2013-02-04 04:09:00,
2013-02-03 18:14:00,71.6,60.9,30.14,ENE,66,3.0,11.0,69,0.00,,---,0.00,VWS V14.00,2013-02-04 04:14:00,
2013-02-03 18:19:00,71.5,60.4,30.14,ENE,63,5.0,11.0,68,0.00,,---,0.00,VWS V14.00,2013-02-04 04:19:00,
2013-02-03 18:24:00,71.5,60.4,30.15,ENE,57,4.0,11.0,68,0.00,,---,0.00,VWS V14.00,2013-02-04 04:24:00,
2013-02-03 18:29:00,71.5,60.4,30.15,ENE,61,11.0,12.0,68,0.00,,---,0.00,VWS V14.00,2013-02-04 04:29:00,
2013-02-03 18:34:00,71.5,60.4,30.15,ENE,61,3.0,9.0,68,0.00,,---,0.00,VWS V14.00,2013-02-04 04:34:00,
2013-02-03 18:39:00,71.6,60.1,30.15,NE,39,3.0,9.0,67,0.00,,---,0.00,VWS V14.00,2013-02-04 04:39:00,
2013-02-03 18:44:00,71.5,60.0,30.15,ENE,76,7.0,12.0,67,0.00,,---,0.00,VWS V14.00,2013-02-04 04:44:00,
2013-02-03 18:49:00,71.4,59.9,30.15,ENE,65,4.0,12.0,67,0.00,,---,0.00,VWS V14.00,2013-02-04 04:49:00,
2013-02-03 18:54:00,71.4,59.9,30.15,NE,47,0.0,12.0,67,0.00,,---,0.00,VWS V14.00,2013-02-04 04:54:00,
2013-02-03 18:59:00,71.5,60.0,30.15,ENE,68,2.0,14.0,67,0.00,,---,0.00,VWS V14.00,2013-02-04 04:59:00,
2013-02-03 19:01:00,71.4,59.9,30.16,ENE,63,5.0,14.0,67,0.00,,---,0.00,VWS V14.00,2013-02-04 05:01:00,
2013-02-03 19:02:00,71.4,59.9,30.15,ENE,67,5.0,14.0,67,0.00,,---,0.00,VWS V14.00,2013-02-04 05:02:00,
2013-02-03 19:07:00,71.4,59.9,30.16,ENE,64,0.0,7.0,67,0.00,,---,0.00,VWS V14.00,2013-02-04 05:07:00,
2013-02-03 19:12:00,71.4,59.9,30.16,ENE,60,3.0,8.0,67,0.00,,---,0.00,VWS V14.00,2013-02-04 05:12:00,
2013-02-03 19:17:00,71.3,59.4,30.16,ENE,62,2.0,12.0,66,0.00,,---,0.00,VWS V14.00,2013-02-04 05:17:00,
2013-02-03 19:22:00,71.4,59.9,30.16,NE,46,3.0,12.0,67,0.00,,---,0.00,VWS V14.00,2013-02-04 05:22:00,
2013-02-03 19:27:00,71.5,60.4,30.16,ENE,61,1.0,12.0,68,0.00,,---,0.00,VWS V14.00,2013-02-04 05:27:00,
2013-02-03 19:32:00,71.5,60.0,30.16,ENE,65,6.0,12.0,67,0.00,,---,0.00,VWS V14.00,2013-02-04 05:32:00,
2013-02-03 19:37:00,71.5,60.0,30.16,ENE,69,0.0,8.0,67,0.00,,---,0.00,VWS V14.00,2013-02-04 05:37:00,
2013-02-03 19:42:00,71.5,60.0,30.16,ENE,67,2.0,8.0,67,0.00,,---,0.00,VWS V14.00,2013-02-04 05:42:00,
2013-02-03 19:47:00,71.5,59.6,30.16,North,9,3.0,10.0,66,0.00,,---,0.00,VWS V14.00,2013-02-04 05:47:00,
2013-02-03 19:52:00,71.6,58.8,30.17,ENE,62,6.0,13.0,64,0.00,,---,0.00,VWS V14.00,2013-02-04 05:52:00,
2013-02-03 19:57:00,71.7,59.3,30.16,NE,53,4.0,13.0,65,0.00,,---,0.00,VWS V14.00,2013-02-04 05:57:00,
2013-02-03 20:02:00,71.7,59.3,30.17,ENE,71,3.0,13.0,65,0.00,,---,0.00,VWS V14.00,2013-02-04 06:02:00,
2013-02-03 20:07:00,71.7,59.3,30.17,ENE,68,3.0,13.0,65,0.00,,---,0.00,VWS V14.00,2013-02-04 06:07:00,
2013-02-03 20:12:00,71.7,59.3,30.17,East,81,3.0,13.0,65,0.00,,---,0.00,VWS V14.00,2013-02-04 06:12:00,
2013-02-03 20:17:00,71.8,59.4,30.17,NE,51,7.0,13.0,65,0.00,,---,0.00,VWS V14.00,2013-02-04 06:17:00,
2013-02-03 20:22:00,71.9,59.9,30.17,North,5,9.0,13.0,66,0.00,,---,0.00,VWS V14.00,2013-02-04 06:22:00,
2013-02-03 20:27:00,71.9,59.1,30.17,East,80,5.0,14.0,64,0.00,,---,0.00,VWS V14.00,2013-02-04 06:27:00,
2013-02-03 20:32:00,71.9,59.1,30.17,NE,42,6.0,14.0,64,0.00,,---,0.00,VWS V14.00,2013-02-04 06:32:00,
2013-02-03 20:37:00,71.9,59.1,30.17,NE,46,3.0,11.0,64,0.00,,---,0.00,VWS V14.00,2013-02-04 06:37:00,
2013-02-03 20:42:00,71.9,59.1,30.17,NE,53,3.0,11.0,64,0.00,,---,0.00,VWS V14.00,2013-02-04 06:42:00,
2013-02-03 20:47:00,71.9,59.1,30.16,NE,52,4.0,11.0,64,0.00,,---,0.00,VWS V14.00,2013-02-04 06:47:00,
2013-02-03 20:52:00,72.0,59.6,30.17,NNW,348,7.0,11.0,65,0.00,,---,0.00,VWS V14.00,2013-02-04 06:52:00,
2013-02-03 20:57:00,72.0,60.0,30.17,ENE,63,0.0,11.0,66,0.00,,---,0.00,VWS V14.00,2013-02-04 06:57:00,
2013-02-03 21:02:00,72.1,61.4,30.17,NNE,26,2.0,11.0,69,0.00,,---,0.00,VWS V14.00,2013-02-04 07:02:00,
2013-02-03 21:07:00,72.0,61.3,30.17,ENE,71,2.0,8.0,69,0.00,,---,0.00,VWS V14.00,2013-02-04 07:07:00,
2013-02-03 21:12:00,71.9,60.8,30.17,ENE,68,3.0,8.0,68,0.00,,---,0.00,VWS V14.00,2013-02-04 07:12:00,
2013-02-03 21:17:00,71.9,60.4,30.17,ENE,71,0.0,14.0,67,0.00,,---,0.00,VWS V14.00,2013-02-04 07:17:00,
2013-02-03 21:22:00,71.9,60.4,30.17,ENE,59,4.0,14.0,67,0.00,,---,0.00,VWS V14.00,2013-02-04 07:22:00,
2013-02-03 21:27:00,71.9,60.4,30.17,NE,46,2.0,14.0,67,0.00,,---,0.00,VWS V14.00,2013-02-04 07:27:00,
2013-02-03 21:32:00,71.9,60.4,30.17,ENE,69,4.0,14.0,67,0.00,,---,0.00,VWS V14.00,2013-02-04 07:32:00,
2013-02-03 21:37:00,71.9,59.5,30.17,NE,53,5.0,12.0,65,0.00,,---,0.00,VWS V14.00,2013-02-04 07:37:00,
2013-02-03 21:42:00,71.9,59.9,30.17,ENE,66,8.0,12.0,66,0.00,,---,0.00,VWS V14.00,2013-02-04 07:42:00,
2013-02-03 21:47:00,71.9,60.4,30.17,NE,54,1.0,12.0,67,0.00,,---,0.00,VWS V14.00,2013-02-04 07:47:00,
2013-02-03 21:52:00,71.9,60.4,30.17,ENE,71,10.0,14.0,67,0.00,,---,0.00,VWS V14.00,2013-02-04 07:52:00,
2013-02-03 21:57:00,71.8,59.0,30.17,NNE,15,2.0,14.0,64,0.00,,---,0.00,VWS V14.00,2013-02-04 07:57:00,
2013-02-03 22:02:00,71.8,59.4,30.17,ENE,62,3.0,14.0,65,0.00,,---,0.00,VWS V14.00,2013-02-04 08:02:00,
2013-02-03 22:07:00,71.7,58.9,30.17,ENE,59,0.0,12.0,64,0.00,,---,0.00,VWS V14.00,2013-02-04 08:07:00,
2013-02-03 22:12:00,71.7,59.8,30.16,ENE,59,3.0,12.0,66,0.00,,---,0.00,VWS V14.00,2013-02-04 08:12:00,
2013-02-03 22:17:00,71.7,59.8,30.17,NE,55,0.0,12.0,66,0.00,,---,0.00,VWS V14.00,2013-02-04 08:17:00,
2013-02-03 22:22:00,71.6,59.2,30.17,ENE,58,4.0,12.0,65,0.00,,---,0.00,VWS V14.00,2013-02-04 08:22:00,
2013-02-03 22:27:00,71.6,59.2,30.16,NE,54,0.0,12.0,65,0.00,,---,0.00,VWS V14.00,2013-02-04 08:27:00,
2013-02-03 22:32:00,71.6,60.1,30.16,ENE,67,4.0,12.0,67,0.00,,---,0.00,VWS V14.00,2013-02-04 08:32:00,
2013-02-03 22:37:00,71.7,60.2,30.16,East,89,2.0,10.0,67,0.00,,---,0.00,VWS V14.00,2013-02-04 08:37:00,
2013-02-03 22:42:00,71.7,60.6,30.16,NE,46,0.0,10.0,68,0.00,,---,0.00,VWS V14.00,2013-02-04 08:42:00,
2013-02-03 22:47:00,71.7,60.2,30.17,NE,49,8.0,14.0,67,0.00,,---,0.00,VWS V14.00,2013-02-04 08:47:00,
2013-02-03 22:52:00,71.7,59.8,30.16,NE,53,6.0,17.0,66,0.00,,---,0.00,VWS V14.00,2013-02-04 08:52:00,
2013-02-03 22:57:00,71.6,59.2,30.16,ENE,67,6.0,17.0,65,0.00,,---,0.00,VWS V14.00,2013-02-04 08:57:00,
2013-02-03 23:02:00,71.6,59.7,30.16,NE,51,6.0,17.0,66,0.00,,---,0.00,VWS V14.00,2013-02-04 09:02:00,
2013-02-03 23:07:00,71.6,59.7,30.16,NE,43,4.0,6.0,66,0.00,,---,0.00,VWS V14.00,2013-02-04 09:07:00,
2013-02-03 23:12:00,71.5,60.0,30.16,NE,52,4.0,10.0,67,0.00,,---,0.00,VWS V14.00,2013-02-04 09:12:00,
2013-02-03 23:17:00,71.6,59.7,30.16,ENE,67,0.0,14.0,66,0.00,,---,0.00,VWS V14.00,2013-02-04 09:17:00,
2013-02-03 23:22:00,71.6,59.7,30.16,NE,49,4.0,14.0,66,0.00,,---,0.00,VWS V14.00,2013-02-04 09:22:00,
2013-02-03 23:27:00,71.6,59.7,30.16,NE,47,2.0,14.0,66,0.00,,---,0.00,VWS V14.00,2013-02-04 09:27:00,
2013-02-03 23:32:00,71.5,59.6,30.15,ENE,61,6.0,14.0,66,0.00,,---,0.00,VWS V14.00,2013-02-04 09:32:00,
2013-02-03 23:37:00,71.6,59.7,30.16,NE,42,10.0,11.0,66,0.00,,---,0.00,VWS V14.00,2013-02-04 09:37:00,
2013-02-03 23:42:00,71.6,59.7,30.15,NE,56,5.0,11.0,66,0.00,,---,0.00,VWS V14.00,2013-02-04 09:42:00,
2013-02-03 23:47:00,71.7,60.2,30.16,East,97,6.0,11.0,67,0.00,,---,0.00,VWS V14.00,2013-02-04 09:47:00,
2013-02-03 23:52:00,71.6,60.1,30.16,ENE,65,11.0,11.0,67,0.00,,---,0.00,VWS V14.00,2013-02-04 09:52:00,
2013-02-03 23:57:00,71.6,59.2,30.16,NE,55,4.0,13.0,65,0.00,,---,0.00,VWS V14.00,2013-02-04 09:57:00,